Location: Warwick
(41.7000°N, 71.4170°W)
Time: 11:28:00
(UTC-04:00)

Envisat - Visible Passes

Search period start: 18 June 2018 00:00
Search period end: 28 June 2018 00:00
Orbit: 764 x 766 km, 98.2° (Epoch: 18 June)

Date Brightness Start Highest point End Pass type
(mag) Time Alt. Az. Time Alt. Az. Time Alt. Az.
18 Jun 5.1 20:55:41 10° SSW 20:59:55 27° W 21:04:12 10° NW visible
20 Jun 5.6 21:22:50 10° SW 21:25:44 15° W 21:28:40 10° NW visible
23 Jun 5.5 21:10:52 10° SW 21:14:28 19° W 21:18:05 10° NW visible
25 Jun 6.0 21:39:22 10° W 21:40:21 10° W 21:41:19 10° WNW visible
26 Jun 5.2 20:59:07 10° SSW 21:03:12 24° W 21:07:19 10° NW visible
